Capri, Italy

3:59 AM CEST on March 30, 2017 (GMT +0200)
Capri

Weather History for LIQC - September, 2012

Change the Weather History Date:

Wednesday, September 5, 2012

  Actual Average (LIRN) Record (LIRN)
Temperature  
Mean Temperature 74 °F -  
Max Temperature 82 °F 79 °F 87 °F (2013)
Min Temperature 66 °F 63 °F 57 °F (2007)
Cooling Degree Days 9    
Growing Degree Days 24 (Base 50)    
Moisture  
Dew Point 68 °F    
Average Humidity 80    
Maximum Humidity 94    
Minimum Humidity 60    
Precipitation  
Precipitation 0.00 in - - ()
Sea Level Pressure  
Sea Level Pressure 29.90 in    
Wind  
Wind Speed 3 mph ()    
Max Wind Speed 7 mph    
Max Gust Speed -    
Visibility 10.3 miles    
Events Rain , Thunderstorm    
Averages and records for this station are not official NWS values.
T = Trace of Precipitation, MM = Missing Value Source: Averaged Metar Reports

Daily Weather History Graph

Daily Weather History Graph

Search for Another Location

Airport or City:

Trip Planner

Search our weather history database for the weather conditions in past years. The results will help you decide how hot, cold, wet, or windy it might be!

Date:

Astronomy

Sep. 05, 2012 Rise Set
Actual Time 6:34 AM CEST 7:28 PM CEST
Civil Twilight 6:06 AM CEST 7:56 PM CEST
Nautical Twilight 5:33 AM CEST 8:29 PM CEST
Astronomical Twilight 4:59 AM CEST 9:03 PM CEST
Moon 9:45 PM CEST (9/5) 11:23 AM CEST (9/5)
Length of Visible Light 13h 49m
Length of Day
12h 53m
Waning Gibbous, 78% of the Moon is Illuminated
Sep 5
Waning Gibbous
Sep 8
Last Quarter
Sep 16
New
Sep 22
First Quarter
Sep 30
Full

Hourly Weather History & Observations

Time (CEST) Temp. Heat Index Dew Point Humidity Pressure Visibility Wind Dir Wind Speed Gust Speed Precip Events Conditions
12:55 AM 73.4 °F - 68.0 °F 83% 29.89 in - North - - N/A   Clear
1:55 AM 73.4 °F - 71.6 °F 94% 29.89 in - North - - N/A   Scattered Clouds
2:00 AM 73 °F - 71 °F 91% 29.88 in 12 mi SW 2.3 mph - -  
2:55 AM 73.4 °F - 69.8 °F 88% 29.89 in - North - - N/A   Mostly Cloudy
5:55 AM 71.6 °F - 69.8 °F 94% 29.89 in - North - - N/A Rain , Thunderstorm Thunderstorms and Rain
6:55 AM 68.0 °F - 64.4 °F 88% 29.89 in - North - - N/A   Overcast
7:55 AM 66.2 °F - 62.6 °F 88% 29.89 in - North - - N/A   Mostly Cloudy
8:00 AM 67 °F - 63 °F 81% 29.89 in 12 mi 1.2 mph - -  
8:55 AM 68.0 °F - 62.6 °F 83% 29.89 in - North - - N/A   Mostly Cloudy
9:55 AM 69.8 °F - 66.2 °F 88% 29.89 in - North - - N/A   Scattered Clouds
10:55 AM 71.6 °F - 66.2 °F 83% 29.89 in - North - - N/A   Scattered Clouds
11:00 AM 72 °F - 67 °F 79% 29.88 in 6 mi Calm Calm - -   Mostly Cloudy
11:55 AM 73.4 °F - 68.0 °F 83% 29.89 in - North - - N/A   Scattered Clouds
12:55 PM 75.2 °F - 68.0 °F 78% 29.89 in - North - - N/A   Scattered Clouds
1:55 PM 78.8 °F - 68.0 °F 69% 29.89 in - North - - N/A   Scattered Clouds
2:00 PM 78 °F - 69 °F 66% 29.89 in 12 mi West 5.8 mph - -  
2:55 PM 80.6 °F 83.9 °F 69.8 °F 70% 29.89 in - North - - N/A   Mostly Cloudy
3:55 PM 82.4 °F 88.2 °F 73.4 °F 74% 29.89 in - North - - N/A   Scattered Clouds
4:55 PM 82.4 °F 86.3 °F 69.8 °F 66% 29.92 in - North - - N/A   Scattered Clouds
5:00 PM 82 °F - 70 °F 60% 29.89 in 12 mi West 5.8 mph - -   Partly Cloudy
5:55 PM 80.6 °F 83.9 °F 69.8 °F 70% 29.89 in - North - - N/A   Scattered Clouds
6:55 PM 77.0 °F - 68.0 °F 74% 29.92 in - North - - N/A   Scattered Clouds
7:55 PM 75.2 °F - 68.0 °F 78% 29.92 in - North - - N/A   Mostly Cloudy
8:00 PM 75 °F - 69 °F 75% 29.90 in 12 mi West 5.8 mph - -  
8:55 PM 75.2 °F - 69.8 °F 83% 29.92 in - North - - N/A   Mostly Cloudy
9:55 PM 73.4 °F - 71.6 °F 94% 29.92 in - North - - N/A Rain Light Rain
10:55 PM 69.8 °F - 66.2 °F 88% 29.92 in - North - - N/A Rain Light Rain
11:00 PM 70 °F - 66 °F 83% 29.91 in 6 mi WSW 6.9 mph - - Rain Light Rain